GW5140 Weather Reports


Display with metric or nautical units.
time (UTC)temp
F
wind
direction
speed
MPH
gust
MPH
rain 1hr
in
rain 24hr
in
rain mn
in
humidity
%
barometer
mb
20260504024043 42 101 0.0 0.0 0.00 0.00 0.00 83 1018.1
20260504023540 42 109 0.0 0.0 0.00 0.00 0.00 82 1018.2
20260504023036 42 106 0.0 0.0 0.00 0.00 0.00 82 1018.0
20260504022532 42 91 0.0 0.0 0.00 0.00 0.00 81 1018.2
20260504022028 43 99 0.0 0.0 0.00 0.00 0.00 81 1018.0
20260504021526 43 78 0.0 0.0 0.00 0.00 0.00 81 1017.9
20260504021022 43 101 0.0 0.0 0.00 0.00 0.00 81 1018.1
20260504020519 44 99 0.0 0.0 0.00 0.00 0.00 81 1018.0
20260504020016 44 97 0.0 0.0 0.00 0.00 0.00 80 1017.9
20260504015513 44 108 0.0 0.0 0.00 0.00 0.00 80 1017.8
20260504015008 44 115 0.0 0.0 0.00 0.00 0.00 80 1017.7
20260504014504 45 112 0.0 0.0 0.00 0.00 0.00 79 1018.0
20260504014002 45 99 0.0 0.0 0.00 0.00 0.00 78 1018.0
20260504013500 45 102 0.0 0.0 0.00 0.00 0.00 78 1017.9
20260504012955 46 94 0.0 0.0 0.00 0.00 0.00 77 1018.1
20260504012454 46 75 0.0 0.0 0.00 0.00 0.00 75 1018.0
20260504011951 46 121 0.0 0.0 0.00 0.00 0.00 76 1017.7
20260504011447 47 107 0.0 0.0 0.00 0.00 0.00 76 1017.8
20260504010943 47 94 0.0 0.0 0.00 0.00 0.00 75 1018.0
20260504010439 48 100 0.0 0.0 0.00 0.00 0.00 73 1017.9
20260504005936 48 66 0.0 0.0 0.00 0.00 0.00 71 1017.8
20260504005433 49 120 0.0 0.0 0.00 0.00 0.00 71 1017.9
20260504004930 49 114 0.0 0.0 0.00 0.00 0.00 70 1017.7
20260504004428 49 358 0.0 2.0 0.00 0.00 0.00 67 1018.0
20260504003925 49 170 0.0 0.0 0.00 0.00 0.00 65 1017.7
20260504003421 50 90 0.0 0.0 0.00 0.00 0.00 68 1017.8
20260504002918 50 355 1.0 2.0 0.00 0.00 0.00 60 1017.7
20260504002415 51 2 1.0 1.0 0.00 0.00 0.00 65 1017.6
20260504001912 52 309 1.0 2.0 0.00 0.00 0.00 60 1017.7
20260504001410 53 337 2.0 2.0 0.00 0.00 0.00 55 1017.7
20260504000906 53 341 0.0 1.0 0.00 0.00 0.00 55 1017.7
20260504000403 54 350 1.0 3.0 0.00 0.00 0.00 53 1017.7
20260503235900 55 22 0.0 1.0 0.00 0.00 0.00 52 1017.6
20260503235358 56 161 0.0 3.0 0.00 0.00 0.00 37 1017.6
20260503234855 56 134 1.0 2.0 0.00 0.00 0.00 41 1017.7
20260503234353 57 139 0.0 1.0 0.00 0.00 0.00 42 1017.5
20260503233850 57 124 2.0 3.0 0.00 0.00 0.00 37 1017.6
20260503233347 57 276 3.0 6.0 0.00 0.00 0.00 36 1017.7
20260503232843 57 148 2.0 8.0 0.00 0.00 0.00 36 1017.6
20260503232341 57 69 0.0 0.0 0.00 0.00 0.00 36 1017.6
20260503231839 57 135 3.0 4.0 0.00 0.00 0.00 39 1017.6
20260503231335 57 121 1.0 3.0 0.00 0.00 0.00 37 1017.6
20260503230831 57 108 2.0 2.0 0.00 0.00 0.00 37 1017.8
20260503230329 58 85 0.0 1.0 0.00 0.00 0.00 44 1017.7
20260503225826 58 5 1.0 2.0 0.00 0.00 0.00 35 1017.6
20260503225322 58 357 1.0 7.0 0.00 0.00 0.00 35 1017.7
20260503224818 59 37 2.0 4.0 0.00 0.00 0.00 35 1017.6
20260503224316 59 293 0.0 3.0 0.00 0.00 0.00 33 1017.8
20260503223813 59 39 2.0 4.0 0.00 0.00 0.00 33 1017.9
20260503223311 59 40 5.0 9.0 0.00 0.00 0.00 33 1017.9
20260503222806 59 132 0.0 8.0 0.00 0.00 0.00 33 1017.9
20260503222305 59 3 2.0 17.0 0.00 0.00 0.00 39 1018.0
20260503221803 60 280 1.0 9.0 0.00 0.00 0.00 34 1018.0
20260503221301 61 348 1.0 3.0 0.00 0.00 0.00 31 1018.0
20260503220757 60 275 4.0 6.0 0.00 0.00 0.00 33 1018.0
20260503220254 60 210 4.0 6.0 0.00 0.00 0.00 33 1018.1
20260503215750 60 218 1.0 8.0 0.00 0.00 0.00 36 1017.9
20260503215248 61 56 2.0 3.0 0.00 0.00 0.00 36 1018.2
20260503214746 61 4 6.0 9.0 0.00 0.00 0.00 34 1018.0
20260503214242 61 286 2.0 4.0 0.00 0.00 0.00 31 1018.0
20260503213740 60 186 2.0 8.0 0.00 0.00 0.00 32 1017.9
20260503213237 60 48 4.0 9.0 0.00 0.00 0.00 32 1018.0
20260503212734 61 282 0.0 7.0 0.00 0.00 0.00 34 1018.0
20260503212232 60 288 4.0 11.0 0.00 0.00 0.00 32 1018.0
20260503211729 60 129 5.0 10.0 0.00 0.00 0.00 34 1018.1
20260503211225 59 345 2.0 6.0 0.00 0.00 0.00 34 1018.1
20260503210721 59 136 5.0 10.0 0.00 0.00 0.00 34 1018.1
20260503210219 59 121 7.0 18.0 0.00 0.00 0.00 36 1018.2
20260503205714 59 276 2.0 4.0 0.00 0.00 0.00 31 1017.9
20260503205210 60 114 2.0 7.0 0.00 0.00 0.00 35 1018.0
20260503204706 60 168 1.0 11.0 0.00 0.00 0.00 36 1018.2
20260503204204 60 109 1.0 4.0 0.00 0.00 0.00 34 1018.3
20260503203701 58 335 3.0 4.0 0.00 0.00 0.00 39 1018.3
20260503203159 59 79 0.0 4.0 0.00 0.00 0.00 38 1018.7
20260503202655 58 116 8.0 10.0 0.00 0.00 0.00 36 1018.7
20260503202154 57 117 4.0 8.0 0.00 0.00 0.00 35 1019.0
20260503201652 58 172 4.0 9.0 0.00 0.00 0.00 34 1018.9
20260503201149 58 85 4.0 10.0 0.00 0.00 0.00 33 1019.0
20260503200644 59 67 2.0 6.0 0.00 0.00 0.00 35 1018.8
20260503200141 57 158 7.0 10.0 0.00 0.00 0.00 37 1019.0
20260503195638 59 123 4.0 8.0 0.00 0.00 0.00 37 1019.1
20260503195135 58 121 3.0 8.0 0.00 0.00 0.00 34 1019.1
20260503194632 59 224 4.0 11.0 0.00 0.00 0.00 34 1019.2
20260503194127 58 164 2.0 6.0 0.00 0.00 0.00 36 1019.5
20260503193625 59 103 0.0 2.0 0.00 0.00 0.00 34 1019.4
20260503193120 57 226 0.0 2.0 0.00 0.00 0.00 38 1019.3
20260503192616 56 259 1.0 2.0 0.00 0.00 0.00 39 1019.7
20260503192112 56 119 5.0 8.0 0.00 0.00 0.00 38 1019.8
20260503191609 58 144 7.0 11.0 0.00 0.00 0.00 37 1019.7
20260503191106 58 211 5.0 7.0 0.00 0.00 0.00 35 1019.8
20260503190603 58 348 2.0 6.0 0.00 0.00 0.00 44 1019.8
20260503190100 59 200 5.0 8.0 0.00 0.00 0.00 35 1020.2
20260503185556 57 133 1.0 3.0 0.00 0.00 0.00 36 1019.7
20260503185056 58 8 4.0 13.0 0.00 0.00 0.00 36 1020.0
20260503184552 57 327 3.0 4.0 0.00 0.00 0.00 39 1019.8
20260503184049 56 331 1.0 4.0 0.00 0.00 0.00 37 1020.0
20260503183545 57 65 1.0 8.0 0.00 0.00 0.00 39 1019.9
20260503183043 58 154 3.0 7.0 0.00 0.00 0.00 37 1020.0
20260503182541 57 119 10.0 11.0 0.00 0.00 0.00 42 1020.0
20260503182039 57 234 1.0 8.0 0.00 0.00 0.00 35 1020.1
20260503181535 57 26 3.0 10.0 0.00 0.00 0.00 41 1020.4
20260503181032 56 344 2.0 11.0 0.00 0.00 0.00 43 1020.4
20260503180529 56 137 8.0 11.0 0.00 0.00 0.00 39 1020.6
20260503180026 56 150 9.0 18.0 0.00 0.00 0.00 43 1020.3
20260503175524 56 173 9.0 14.0 0.00 0.00 0.00 41 1020.2
20260503175020 56 299 0.0 4.0 0.00 0.00 0.00 36 1020.3
20260503174518 56 206 2.0 3.0 0.00 0.00 0.00 48 1020.5
20260503174014 55 187 3.0 10.0 0.00 0.00 0.00 39 1020.5
20260503173509 56 171 1.0 3.0 0.00 0.00 0.00 37 1020.7
20260503173006 55 135 2.0 4.0 0.00 0.00 0.00 38 1020.8
20260503172504 55 188 7.0 11.0 0.00 0.00 0.00 39 1020.6
20260503172001 55 15 3.0 8.0 0.00 0.00 0.00 38 1020.9
20260503171457 55 154 3.0 9.0 0.00 0.00 0.00 36 1020.8
20260503170954 55 89 2.0 7.0 0.00 0.00 0.00 39 1021.0
20260503170450 55 64 0.0 6.0 0.00 0.00 0.00 38 1021.0
20260503150843 51 75 1.0 9.0 0.00 0.00 0.00 44 1022.2
20260503150339 51 290 2.0 10.0 0.00 0.00 0.00 48 1021.9
20260503140303 47 5 6.0 13.0 0.00 0.00 0.00 55 1022.5
20260503131232 45 202 5.0 8.0 0.00 0.00 0.00 65 1022.6
20260503130730 45 157 1.0 2.0 0.00 0.00 0.00 66 1022.3
20260503130227 44 109 3.0 4.0 0.00 0.00 0.00 68 1022.5
20260503120153 32 8 0.0 0.0 0.00 0.00 0.00 93 1022.1
20260503110621 31 8 0.0 0.0 0.00 0.00 0.00 93 1021.5
20260503110118 31 8 0.0 0.0 0.00 0.00 0.00 93 1021.5
20260503090508 31 352 0.0 0.0 0.00 0.00 0.00 93 1020.6
20260503081434 30 352 0.0 0.0 0.00 0.00 0.00 92 1020.5
20260503080931 30 352 0.0 0.0 0.00 0.00 0.00 92 1020.6
20260503080427 30 352 0.0 0.0 0.00 0.00 0.00 92 1020.5
20260503072904 31 352 0.0 0.0 0.00 0.00 0.00 91 1020.1
20260503072401 31 352 0.0 0.0 0.00 0.00 0.00 91 1020.1
20260503071857 31 352 0.0 0.0 0.00 0.00 0.00 91 1020.2
20260503071355 31 352 0.0 0.0 0.00 0.00 0.00 91 1020.0
20260503070851 31 352 0.0 0.0 0.00 0.00 0.00 91 1020.1
20260503070349 32 352 0.0 0.0 0.00 0.00 0.00 91 1019.9
20260503060314 33 348 0.0 0.0 0.00 0.00 0.00 89 1020.2
20260503054801 33 352 0.0 0.0 0.00 0.00 0.00 88 1020.1
20260503054257 34 351 0.0 0.0 0.00 0.00 0.00 88 1020.2
20260503053755 34 348 0.0 0.0 0.00 0.00 0.00 88 1020.2
20260503053249 34 348 0.0 0.0 0.00 0.00 0.00 87 1020.1
20260503052744 34 346 0.0 0.0 0.00 0.00 0.00 87 1020.1
20260503052241 35 348 0.0 0.0 0.00 0.00 0.00 86 1020.3
20260503051735 35 346 0.0 0.0 0.00 0.00 0.00 86 1020.0
20260503051234 35 351 0.0 0.0 0.00 0.00 0.00 86 1020.1
20260503050730 35 349 0.0 0.0 0.00 0.00 0.00 86 1020.1
20260503050226 36 348 0.0 0.0 0.00 0.00 0.00 85 1020.1
20260503045724 36 350 0.0 0.0 0.00 0.00 0.00 85 1020.1
20260503045222 36 351 0.0 0.0 0.00 0.00 0.00 85 1020.2
20260503044718 36 351 0.0 0.0 0.00 0.00 0.00 85 1020.0
20260503044215 37 351 0.0 0.0 0.00 0.00 0.00 85 1020.0
20260503043712 37 349 0.0 0.0 0.00 0.00 0.00 85 1020.0
20260503043210 37 345 0.0 0.0 0.00 0.00 0.00 85 1020.1
20260503042705 37 345 0.0 0.0 0.00 0.00 0.00 84 1020.1
20260503042202 37 344 0.0 0.0 0.00 0.00 0.00 83 1020.0
20260503041658 38 346 0.0 0.0 0.00 0.00 0.00 83 1020.1
20260503041156 38 345 0.0 0.0 0.00 0.00 0.00 82 1020.1
20260503040653 38 346 0.0 0.0 0.00 0.00 0.00 82 1020.0
20260503040151 38 349 0.0 0.0 0.00 0.00 0.00 82 1020.1
20260503035647 38 348 0.0 0.0 0.00 0.00 0.00 81 1020.2
20260503035145 39 346 0.0 0.0 0.00 0.00 0.00 82 1020.1
20260503034642 39 18 0.0 0.0 0.00 0.00 0.00 80 1020.0
20260503034139 39 18 0.0 0.0 0.00 0.00 0.00 79 1020.0
20260503033636 39 18 0.0 0.0 0.00 0.00 0.00 78 1020.0
20260503033134 39 18 0.0 0.0 0.00 0.00 0.00 77 1020.2
20260503032632 40 18 0.0 0.0 0.00 0.00 0.00 80 1020.3
20260503032130 40 18 0.0 0.0 0.00 0.00 0.00 80 1020.1
20260503031627 40 18 0.0 0.0 0.00 0.00 0.00 79 1020.0
20260503031125 40 18 0.0 0.0 0.00 0.00 0.00 78 1020.2
20260503030620 40 18 0.0 1.0 0.00 0.00 0.00 78 1020.0
20260503030117 40 18 0.0 0.0 0.00 0.00 0.00 76 1020.1
20260503025614 40 340 0.0 0.0 0.00 0.00 0.00 77 1020.1
20260503025113 40 340 0.0 0.0 0.00 0.00 0.00 76 1020.1
20260503024608 40 340 0.0 1.0 0.00 0.00 0.00 74 1020.1